Weather Roundup
Issued by NWS Chicago, IL

Home | Current Version | Previous Version | Graphics & Text | Print | Product List | Glossary On
Versions: 1 2 3 4 5 6 7 8 9 10 11 12 13 14 15 16 17 18 19 20 21 22 23 24 25 26 27 28 29 30 31 32 33 34 35 36 37 38 39 40 41 42 43 44 45 46 47 48 49 50
000
NZUS59 KLOT 272010
HRRLOT

CHICAGO AREA WEATHER ROUNDUP
NATIONAL WEATHER SERVICE CHICAGO/ROMEOVILLE IL
200 PM CST FRI FEB 27 2015

NOTE: "FAIR" INDICATES FEW OR NO CLOUDS BELOW 12,000 FEET WITH NO
SIGNIFICANT WEATHER AND/OR OBSTRUCTIONS TO VISIBILITY.

* THESE STATIONS ARE NOT UNDER NWS QUALITY CONTROL. THEY ALSO MAY NOT
  REPORT WEATHER SUCH AS PRECIPITATION OR FOG.

ILZ005-006-012>014-019>023-272100-
NORTHEAST ILLINOIS

CITY           SKY/WX    TMP DP  RH WIND       PRES   REMARKS
OHARE          SUNNY     13  -4  46 W10       30.58F WCI   0
MIDWAY         SUNNY     16  -3  43 W8        30.60F WCI   5
AURORA         SUNNY     11  -2  56 W10       30.61F WCI  -3
LANSING*       SUNNY     15  -2  46 W12       30.60F WCI   2
JOLIET*        SUNNY     11  -3  52 W8        30.63F WCI   0
WAUKEGAN       SUNNY     14  -5  42 W8        30.56F WCI   3
DUPAGE AIRPORT SUNNY     12  -4  48 W10       30.59F WCI  -1
WHEELING       SUNNY     15  -5  40 W10       30.60S WCI   2
KANKAKEE*      SUNNY     10   2  70 W8        30.63F WCI  -1
MORRIS*        SUNNY     11   1  65 NW6       30.62F WCI   1
LEWIS AIRPORT* SUNNY     12  -2  53 W12       30.61S WCI  -2
NORTHERLY IS     N/A     19  -4  36 NW7         N/A  WCI  10
$$

WIZ051-052-058>065-066-070>072-272100-
SOUTHEAST WISCONSIN

CITY           SKY/WX    TMP DP  RH WIND       PRES   REMARKS
MILWAUKEE      SUNNY     17  -7  34 W10       30.55F WCI   5
KENOSHA*       SUNNY     14  -3  47 W12       30.56F WCI   0
RACINE*        SUNNY     14  -5  42 VRB7      30.57F WCI   4
BURLINGTON     SUNNY     13  -5  45 W9        30.56S WCI   0
WAUKESHA       SUNNY     12  -6  44 SW9       30.54F WCI   0
WEST BEND      SUNNY     18  -4  38 SW10      30.51F WCI   6
$$

INZ001>003-010>013-019-020-272100-
NORTHWEST INDIANA

CITY           SKY/WX    TMP DP  RH WIND       PRES   REMARKS
GARY*          SUNNY     18  -8  32 W9        30.61  WCI   6
MICHIGAN CITY* NOT AVBL
RENSSELAER*    NOT AVBL
VALPARAISO     MIX PCPN  15  -3  44 SW7       30.58F WCI   5
$$

LMZ740>746-272100-
SOUTHERN LAKE MICHIGAN

STATION/POSITION TIME  SKY/WX   TEMP WIND        PRES    VSBY
                                AIR  DIR/SP/G
                 (UTC)          (F)  (DEG/KT/KT) (MB)    (MI)
HARRISON CRIB    2000            15  270/  9/ 14   N/A
BURNHAM HARBOR   2000            18  260/ 10/ 11   N/A
CALUMET HARBOR   2000            18  240/  5/ 10 1034.5S
BURNS HARBOR     NOT AVBL
MICHIGAN CITY    2000            16  250/  7/  9   N/A
$$

ABBREVIATIONS USED IN REMARKS
   TC - TEMPERATURE IN CELSIUS
  WCI - WIND CHILL INDEX
   HX - HEAT INDEX
  VSB - VISIBILITY
$$


USA.gov is the U.S. government's official web portal to all federal, state and local government web resources and services.